星链-34452 (STARLINK-34452)

导读 | 豆包AI

STARLINK-34452是美国SpaceX星链计划的卫星,于2025年6月17日发射升空,是星链低轨互联网星座组网任务中的一员。星链系统旨在为全球提供覆盖偏远地区的高速宽带网络服务,该卫星入轨后将补充星座容量,提升全球互联网覆盖的稳定性与带宽表现。

基本信息
目录编号:
64425
目录名称:
STARLINK-34452
国际标识:
2025-129P
轨道中心:
EARTH
卫星名称:
星链-34452
卫星全名:
星链-34452 (STARLINK-34452)
卫星状态:
在轨 (已飞行270 天)
发射日期:
2025-06-17 UTC
国别 :
美国 (US)
星等 :
--
轨道信息
数据来源 国际轨道数据
星历时间: 2026-03-14T14:07:47+0800
11小时前
查看轨道信息
半长轴: 6950.156km
偏心率: 0.000318
轨道倾角: 70.001°
近地点辐角 273.688°
升交点赤经 62.846°
平近点角 86.392°
近地点: 569.808km
远地点: 574.23km
周期: 96.106分钟
每日圈数: 14.983421
详细信息
固有亮度:
5
最大亮度:
2.5
卫星平台:
Starlink V1.0
覆盖范围:
全球
运营商:
太空探索技术公司
运营商所在国:
美国
制造商(研发单位):
太空探索技术公司
制造商所在国:
美国
使用方式:
暂无
卫星简介
Starlink 计划是 SpaceX 推出的全球卫星互联网项目,通过发射低轨道卫星,为全球尤其是偏远地区提供高速、低延迟的互联网服务。自 2019 年起,Starlink 已部署数千颗卫星,旨在缩小全球数字鸿沟,推动互联网普及。该项目还为军事、航空等行业提供通信支持,带来广泛经济效益。
2D轨道图
3D轨道图
轨道高度分析图
轨道倾角分析图
轨道综合分析图
查看轨道综合分析图